This demonstration page uses our WeatherBlox Daily Observations layout. Learn more.

Left ArrowRight Arrow

Hourly Observations for February 1, 2019

Temp ( °F °C ) Dew Point ( °F °C ) Humidity (%) Winds ( mph kmh ) Pressure ( in mb ) Visibility ( mi km ) Precip ( " mm )
12:57 am 00:57 Clear 30 -1.1 21 -6.1 69 69 SW 10 17 30.05 1018 10 16 0.00 0.00
1:57 am 01:57 Clear 28 -2.2 21 -6.1 75 75 SW 8 13 30.05 1018 10 16 0.00 0.00
2:57 am 02:57 Clear 30 -1.1 22 -5.6 72 72 WSW 13 20 30.05 1018 10 16 0.00 0.00
3:57 am 03:57 Clear 28 -2.2 21 -6.1 75 75 SSW 8 13 30.04 1017 10 16 0.00 0.00
4:57 am 04:57 Clear 28 -2.2 21 -6.1 75 75 SW 9 15 30.04 1017 10 16 0.00 0.00
5:57 am 05:57 Clear 24 -4.4 19 -7.2 81 81 SSW 7 11 30.06 1018 10 16 0.00 0.00
6:57 am 06:57 Clear 26 -3.3 20 -6.7 78 78 SW 8 13 30.06 1018 10 16 0.00 0.00
7:57 am 07:57 Sunny 26 -3.3 20 -6.7 78 78 SW 7 11 30.08 1019 10 16 0.00 0.00
9:57 am 09:57 Sunny 36 2.2 23 -5 59 59 SSW 8 13 30.09 1019 10 16 0.00 0.00
10:57 am 10:57 Sunny 42 5.6 24 -4.4 49 49 SW 13 20 30.08 1019 10 16 0.00 0.00
11:57 am 11:57 Sunny 51 10.6 24 -4.4 35 35 SW 18 30 30.06 1018 10 16 0.00 0.00
12:57 pm 12:57 Sunny 56 13.3 22 -5.6 27 27 SSW 17 28 30.02 1017 10 16 0.00 0.00
1:57 pm 13:57 Sunny 57 13.9 22 -5.6 26 26 SW 17 28 30.00 1016 10 16 0.00 0.00
2:57 pm 14:57 Sunny 57 13.9 25 -3.9 29 29 SW 16 26 29.98 1015 10 16 0.00 0.00
3:57 pm 15:57 Sunny 56 13.3 28 -2.2 34 34 SSW 16 26 29.98 1015 10 16 0.00 0.00
4:57 pm 16:57 Sunny 53 11.7 29 -1.7 40 40 SSW 13 20 29.98 1015 10 16 0.00 0.00
5:57 pm 17:57 Clear 44 6.7 27 -2.8 51 51 S 7 11 30.00 1016 10 16 0.00 0.00
6:57 pm 18:57 Clear 40 4.4 26 -3.3 58 58 S 8 13 30.00 1016 10 16 0.00 0.00
7:57 pm 19:57 Clear 42 5.6 27 -2.8 55 55 S 12 19 30.00 1016 10 16 0.00 0.00
8:57 pm 20:57 Clear 42 5.6 27 -2.8 55 55 SSW 16 26 30.00 1016 10 16 0.00 0.00
9:57 pm 21:57 Clear 40 4.4 27 -2.8 60 60 SSW 20 31 29.99 1016 10 16 0.00 0.00
10:57 pm 22:57 Clear 39 3.9 27 -2.8 62 62 SSW 17 28 29.98 1015 10 16 0.00 0.00
11:57 pm 23:57 Clear 38 3.3 28 -2.2 68 68 SSW 13 20 29.97 1015 10 16 0.00 0.00

Powered by AerisWeather